When you browse on this site, cookies collect data to enhance your experience and personalize the content and advertising you see.
Visit our Privacy Policy to learn more. By continuing to use the site, you agree to this use of cookies and data.
EN

Hourly Weather Covasna

Today, 12 August, Wednesday

Time Temperature Precipitation Wind Pressure Humidity
00:00 +16°C° 0 mm 1 mps 704 mmHg 85%
01:00 +16°C° 0 mm 1 mps 704 mmHg 85%
02:00 +15°C° 0 mm 0 mps 704 mmHg 85%
03:00 +15°C° 0.1 mm 0 mps 704 mmHg 86%
04:00 +14°C° 0.1 mm 0 mps 704 mmHg 86%
05:00 +14°C° 0.1 mm 0 mps 704 mmHg 86%
06:00 +16°C° 0.1 mm 0 mps 704 mmHg 83%
07:00 +18°C° 0.1 mm 0 mps 705 mmHg 80%
08:00 +19°C° 0.1 mm 0 mps 705 mmHg 77%
09:00 +20°C° 0.5 mm 0 mps 705 mmHg 74%
10:00 +22°C° 0.5 mm 0 mps 705 mmHg 72%
11:00 +23°C° 0.5 mm 0 mps 706 mmHg 69%
12:00 +25°C° 1 mm 1 mps 705 mmHg 68%
13:00 +25°C° 1 mm 1 mps 705 mmHg 68%
14:00 +25°C° 1 mm 1 mps 705 mmHg 67%
15:00 +25°C° 0.9 mm 1 mps 705 mmHg 70%
16:00 +24°C° 0.9 mm 2 mps 705 mmHg 72%
17:00 +23°C° 0.9 mm 2 mps 705 mmHg 75%
18:00 +21°C° 0.4 mm 2 mps 705 mmHg 80%
19:00 +19°C° 0.4 mm 2 mps 705 mmHg 85%
20:00 +18°C° 0.4 mm 1 mps 705 mmHg 90%
21:00 +18°C° 0 mm 1 mps 705 mmHg 91%
22:00 +16°C° 0 mm 1 mps 706 mmHg 92%
23:00 +16°C° 0 mm 1 mps 706 mmHg 93%

Tomorrow, 13 August, Thursday

Time Temperature Precipitation Wind Pressure Humidity
00:00 +15°C° 0 mm 1 mps 706 mmHg 94%
01:00 +15°C° 0 mm 1 mps 706 mmHg 94%
02:00 +14°C° 0 mm 1 mps 706 mmHg 95%
03:00 +14°C° 0 mm 1 mps 706 mmHg 95%
04:00 +14°C° 0 mm 1 mps 706 mmHg 95%
05:00 +13°C° 0 mm 1 mps 706 mmHg 94%
06:00 +15°C° 0 mm 1 mps 706 mmHg 90%
07:00 +16°C° 0 mm 1 mps 707 mmHg 85%
08:00 +19°C° 0 mm 1 mps 707 mmHg 80%
09:00 +21°C° 0 mm 1 mps 707 mmHg 73%
10:00 +23°C° 0 mm 1 mps 707 mmHg 66%
11:00 +25°C° 0 mm 1 mps 708 mmHg 58%
12:00 +25°C° 0.1 mm 1 mps 707 mmHg 55%
13:00 +26°C° 0.1 mm 1 mps 707 mmHg 53%
14:00 +27°C° 0.1 mm 1 mps 706 mmHg 50%
15:00 +26°C° 0.1 mm 1 mps 706 mmHg 52%
16:00 +26°C° 0.1 mm 1 mps 706 mmHg 54%
17:00 +26°C° 0.1 mm 1 mps 706 mmHg 56%
18:00 +24°C° 0.1 mm 1 mps 705 mmHg 63%
19:00 +22°C° 0.1 mm 1 mps 705 mmHg 71%
20:00 +20°C° 0.1 mm 1 mps 705 mmHg 79%
21:00 +19°C° 0 mm 1 mps 705 mmHg 81%
22:00 +18°C° 0 mm 1 mps 705 mmHg 83%
23:00 +16°C° 0 mm 1 mps 705 mmHg 85%

Day after tomorrow, 14 August, Friday

Time Temperature Precipitation Wind Pressure Humidity
00:00 +16°C° 0 mm 1 mps 705 mmHg 85%
01:00 +15°C° 0 mm 1 mps 705 mmHg 85%
02:00 +15°C° 0 mm 1 mps 705 mmHg 86%
03:00 +15°C° 0 mm 1 mps 704 mmHg 85%
04:00 +14°C° 0 mm 1 mps 704 mmHg 85%
05:00 +14°C° 0 mm 1 mps 704 mmHg 85%
06:00 +16°C° 0 mm 1 mps 704 mmHg 79%
07:00 +17°C° 0 mm 0 mps 705 mmHg 74%
08:00 +20°C° 0 mm 0 mps 705 mmHg 68%
09:00 +23°C° 0 mm 1 mps 705 mmHg 61%
10:00 +25°C° 0 mm 1 mps 705 mmHg 54%
11:00 +27°C° 0 mm 1 mps 706 mmHg 47%
12:00 +27°C° 0.1 mm 1 mps 705 mmHg 45%
13:00 +28°C° 0.1 mm 1 mps 705 mmHg 44%
14:00 +28°C° 0.1 mm 1 mps 704 mmHg 43%
15:00 +27°C° 0.1 mm 1 mps 704 mmHg 46%
16:00 +27°C° 0.1 mm 1 mps 704 mmHg 49%
17:00 +26°C° 0.1 mm 1 mps 704 mmHg 52%
18:00 +24°C° 0 mm 1 mps 704 mmHg 60%
19:00 +22°C° 0 mm 1 mps 703 mmHg 67%
20:00 +20°C° 0 mm 1 mps 703 mmHg 74%
21:00 +19°C° 0 mm 1 mps 703 mmHg 75%
22:00 +19°C° 0 mm 1 mps 704 mmHg 75%
23:00 +18°C° 0 mm 1 mps 704 mmHg 76%

15 August, Saturday

Time Temperature Precipitation Wind Pressure Humidity
00:00 +18°C° 0 mm 1 mps 704 mmHg 77%
01:00 +16°C° 0 mm 1 mps 704 mmHg 78%
02:00 +15°C° 0 mm 1 mps 703 mmHg 79%
03:00 +15°C° 0 mm 1 mps 703 mmHg 80%
04:00 +15°C° 0 mm 1 mps 703 mmHg 81%
05:00 +15°C° 0 mm 1 mps 703 mmHg 82%
06:00 +16°C° 0 mm 2 mps 704 mmHg 76%
07:00 +18°C° 0 mm 2 mps 704 mmHg 70%
08:00 +20°C° 0 mm 2 mps 704 mmHg 65%
09:00 +21°C° 0 mm 2 mps 705 mmHg 60%
10:00 +24°C° 0 mm 2 mps 705 mmHg 56%
11:00 +26°C° 0 mm 3 mps 705 mmHg 52%
12:00 +25°C° 0.2 mm 3 mps 705 mmHg 54%
13:00 +25°C° 0.2 mm 3 mps 705 mmHg 57%
14:00 +25°C° 0.2 mm 3 mps 704 mmHg 59%
15:00 +25°C° 0.5 mm 3 mps 704 mmHg 62%
16:00 +24°C° 0.5 mm 3 mps 704 mmHg 64%
17:00 +24°C° 0.5 mm 2 mps 704 mmHg 67%
18:00 +21°C° 0.3 mm 2 mps 704 mmHg 73%
19:00 +19°C° 0.3 mm 2 mps 704 mmHg 79%
20:00 +18°C° 0.3 mm 1 mps 704 mmHg 85%
21:00 +18°C° 0 mm 1 mps 704 mmHg 84%
22:00 +17°C° 0 mm 2 mps 704 mmHg 84%
23:00 +17°C° 0 mm 2 mps 704 mmHg 84%

16 August, Sunday

Time Temperature Precipitation Wind Pressure Humidity
00:00 +16°C° 0 mm 2 mps 704 mmHg 86%
01:00 +16°C° 0 mm 1 mps 704 mmHg 88%
02:00 +16°C° 0 mm 1 mps 704 mmHg 90%
03:00 +16°C° 0 mm 1 mps 704 mmHg 90%
04:00 +15°C° 0 mm 1 mps 704 mmHg 90%
05:00 +15°C° 0 mm 1 mps 704 mmHg 89%
06:00 +16°C° 0 mm 1 mps 704 mmHg 87%
07:00 +16°C° 0 mm 1 mps 704 mmHg 84%
08:00 +18°C° 0 mm 1 mps 704 mmHg 81%
09:00 +17°C° 0 mm 2 mps 705 mmHg 79%
10:00 +18°C° 0 mm 2 mps 705 mmHg 76%
11:00 +18°C° 0 mm 2 mps 705 mmHg 73%
12:00 +18°C° 0 mm 2 mps 705 mmHg 70%
13:00 +19°C° 0 mm 2 mps 705 mmHg 67%
14:00 +19°C° 0 mm 2 mps 705 mmHg 64%
15:00 +20°C° 0 mm 2 mps 705 mmHg 62%
16:00 +20°C° 0 mm 2 mps 705 mmHg 61%
17:00 +20°C° 0 mm 3 mps 705 mmHg 59%
18:00 +19°C° 0 mm 2 mps 705 mmHg 65%
19:00 +17°C° 0 mm 2 mps 705 mmHg 71%
20:00 +15°C° 0 mm 2 mps 705 mmHg 77%
21:00 +15°C° 0 mm 2 mps 705 mmHg 74%
22:00 +15°C° 0 mm 2 mps 705 mmHg 70%
23:00 +15°C° 0 mm 2 mps 706 mmHg 67%

17 August, Monday

Time Temperature Precipitation Wind Pressure Humidity
00:00 +15°C° 0 mm 1 mps 706 mmHg 68%
01:00 +14°C° 0 mm 1 mps 706 mmHg 69%
02:00 +14°C° 0 mm 1 mps 706 mmHg 69%
03:00 +14°C° 0 mm 1 mps 706 mmHg 71%
04:00 +14°C° 0 mm 1 mps 706 mmHg 72%
05:00 +14°C° 0 mm 1 mps 706 mmHg 74%
06:00 +16°C° 0 mm 1 mps 706 mmHg 71%
07:00 +18°C° 0 mm 1 mps 706 mmHg 68%
08:00 +19°C° 0 mm 1 mps 707 mmHg 66%
09:00 +20°C° 0 mm 1 mps 707 mmHg 62%
10:00 +21°C° 0 mm 1 mps 707 mmHg 58%
11:00 +20°C° 0 mm 2 mps 707 mmHg 55%
12:00 +23°C° 0 mm 2 mps 707 mmHg 51%
13:00 +24°C° 0 mm 2 mps 707 mmHg 48%
14:00 +26°C° 0 mm 2 mps 707 mmHg 44%
15:00 +25°C° 0 mm 2 mps 706 mmHg 46%
16:00 +25°C° 0 mm 2 mps 706 mmHg 47%
17:00 +25°C° 0 mm 2 mps 706 mmHg 49%
18:00 +23°C° 0 mm 1 mps 706 mmHg 55%
19:00 +20°C° 0 mm 1 mps 705 mmHg 62%
20:00 +18°C° 0 mm 1 mps 705 mmHg 69%
21:00 +18°C° 0 mm 1 mps 705 mmHg 68%
22:00 +16°C° 0 mm 1 mps 706 mmHg 68%
23:00 +15°C° 0 mm 1 mps 706 mmHg 68%
Show more